Location: La Balantina
(44.9000°N, 10.9833°E)
Time: 12:02:51
(UTC+00:00)

Daily predictions for brighter satellites

Satellite Brightness Start Highest point End
(mag) Time Altitude Azimuth Time Altitude Azimuth Time Altitude Azimuth
Cosmos 2082 Rocket 2.3 19:06:32 10° S 19:12:01 58° ESE 19:17:34 10° NNE
Cosmos 1842 Rocket 3.7 19:11:23 10° N 19:15:50 60° ENE 19:20:16 10° SSE
Cosmos 2278 4.1 19:10:57 10° NNW 19:16:28 51° ENE 19:21:59 10° SE
Resurs 1-3 3.6 19:13:38 10° SSE 19:17:59 70° ENE 19:22:22 10° N
Cosmos 2360 Rocket 4.3 19:20:03 10° N 19:22:41 13° NE 19:25:20 10° ENE
Cosmos 1633 3.0 19:19:19 10° SSE 19:22:42 40° E 19:26:07 10° NNE
Nadezhda 4 Rocket 4.2 19:25:17 10° SSE 19:31:14 54° E 19:37:16 10° NNE
Cosmos 1606 2.7 19:27:30 10° N 19:31:17 66° E 19:35:03 10° SSE
Cosmos 1242 Rocket 4.1 19:30:32 10° NNW 19:33:51 35° W 19:37:05 10° SSW
Landsat 7 4.0 19:32:41 10° SSE 19:37:20 58° ENE 19:42:01 10° N
SPOT 3 Rocket 3.8 19:33:58 10° SSE 19:39:04 55° ENE 19:44:09 10° N
ISS -3.4 19:36:33 10° NW 19:39:54 59° NNE 19:42:58 12° ESE
Cosmos 1825 4.1 19:36:34 10° SW 19:39:57 32° WNW 19:43:22 10° N
IGS 5A 3.5 19:36:27 10° SSE 19:40:33 68° ENE 19:44:41 10° N
BREEZE-M DEB (TANK) 4.1 19:31:02 10° W 19:43:33 60° NNW 19:47:09 10° ENE
Cosmos 2058 4.0 19:40:40 10° SSW 19:44:42 48° WNW 19:48:48 10° N
Cosmos 1980 Rocket 2.3 19:39:30 10° NNW 19:45:09 81° WSW 19:50:48 10° SSE
Cosmos 2369 4.2 19:39:53 10° NNW 19:45:27 60° WSW 19:50:59 10° S
MetOp-B 4.4 19:40:17 10° SSE 19:45:29 55° ENE 19:50:43 10° N
CZ-2C R/B 4.3 19:43:37 10° NNE 19:47:46 35° E 19:51:50 10° SSE
Cosmos 2221 3.2 19:45:59 10° NNW 19:50:12 54° W 19:54:24 10° S
RESURS DK-1 3.0 19:46:20 10° SW 19:50:26 61° WNW 19:54:35 10° NNE
ERBS 4.2 19:48:46 10° WNW 19:51:17 21° SW 19:53:48 10° S
USA 245 4.3 19:47:53 12° SE 19:52:16 42° ENE 19:56:16 10° N
BREEZE-M DEB (TANK) 3.2 19:50:57 10° SW 19:54:18 68° SE 20:05:25 10° ENE
Meteor 2-15 4.5 19:49:01 10° N 19:55:03 65° E 20:00:52 11° SSE
Cosmos 2322 Rocket 3.3 19:50:47 10° N 19:55:46 31° NE 19:59:58 13° ESE
Cosmos 304 Rocket 4.1 19:55:43 10° NNW 20:00:26 53° ENE 20:03:55 17° SE
BREEZE-M DEB (TANK) 3.6 19:57:35 10° WNW 20:00:49 89° NNE 20:09:24 13° ESE
Cosmos 1538 Rocket 3.9 19:55:53 10° SSW 20:01:06 85° ESE 20:06:19 10° NNE
Cosmos 1933 3.6 19:57:47 10° N 20:01:45 49° ENE 20:04:32 18° SSE
Resurs 01 Rocket 1.9 19:58:47 10° S 20:03:13 71° WSW 20:07:40 10° NNW
Cosmos 2151 2.9 20:01:13 10° S 20:05:25 70° E 20:09:41 10° NNE
ERS-2 3.0 20:02:25 10° N 20:05:59 51° WNW 20:09:31 10° SSW
Cosmos 2098 Rocket 2.9 20:03:45 10° SSW 20:06:46 60° W 20:10:20 10° N
Gbstr 26 Del rocket 3.1 20:06:20 10° NW 20:10:01 55° NNE 20:12:57 17° E
Meteor 2-3 Rocket 3.8 20:05:01 10° S 20:10:34 62° E 20:16:13 10° NNE
CARTOSAT-1 3.9 20:09:29 20° SE 20:12:15 48° ENE 20:16:26 10° N
Meteor 2-15 Rocket 4.4 20:07:08 10° N 20:13:13 70° E 20:18:11 16° SSE
Cosmos 2219 Rocket 4.4 20:13:54 10° N 20:16:44 14° NE 20:19:33 10° ENE
Ariane Rocket 4.3 20:13:01 10° SSW 20:17:42 37° W 20:22:24 10° NNW
SL-16 R/B 2.4 20:18:53 10° NNW 20:24:32 62° ENE 20:28:03 23° SE
Cosmos 1782 2.9 20:24:14 10° N 20:28:13 58° E 20:30:02 29° SSE
Cosmos 371 Rocket 4.1 20:24:24 10° NNW 20:29:01 46° WSW 20:32:51 14° S
ARIANE 5 R/B 2.8 20:26:52 25° SE 20:29:21 62° ENE 20:33:45 10° N
Cosmos 1271 Rocket 2.8 20:30:48 10° NNW 20:34:48 85° W 20:36:55 27° S
SPOT 1/Viking Rocket 3.9 20:31:18 15° S 20:35:32 64° WSW 20:40:44 10° NNW
USA 276 2.1 20:34:30 10° WNW 20:37:39 78° NNE 20:38:32 43° ESE
Cosmos 2195 Rocket 4.5 20:31:35 10° S 20:37:42 85° W 20:43:51 10° N
BREEZE-M DEB (TANK) 2.8 20:35:24 10° WNW 20:38:38 68° SSW 20:43:14 23° SE
Cosmos 1766 Rocket 3.6 20:37:42 28° SSE 20:39:50 58° E 20:44:09 10° NNE
Cosmos 1151 Rocket 3.0 20:37:29 10° N 20:41:50 66° E 20:43:40 33° SSE
ATLAS 5 CENTAUR R/B 4.3 20:39:36 10° NNW 20:43:07 18° NNE 20:47:00 10° ENE
Cosmos 1328 Rocket 3.8 20:41:41 10° N 20:46:05 55° ENE 20:47:39 35° SE
Cosmos 923 Rocket 4.0 20:42:08 10° SSW 20:47:29 86° WNW 20:52:52 10° NNE
Terra 2.0 20:47:56 32° SE 20:49:55 58° ENE 20:54:36 10° N
ATLAS 3B R/B 3.6 20:45:01 10° NW 20:51:42 44° WSW 20:56:42 19° S
SPOT 5 2.5 20:50:48 35° SSE 20:52:36 85° ENE 20:57:00 10° NNW
USA 267 3.7 20:48:28 10° ENE 20:54:28 37° SE 20:59:02 16° S
Cosmos 1092 Rocket 4.5 20:49:41 10° SSW 20:55:51 60° WNW 21:02:07 10° N
Cosmos 2082 Rocket 4.5 20:51:50 10° WSW 20:56:29 26° NW 21:01:12 10° N
Cosmos 2056 Rocket 3.7 20:54:44 10° NNW 21:00:04 62° ENE 21:02:09 36° SE
NOSS 2-1 (C) 3.4 21:00:51 42° ENE 21:00:51 42° ENE 21:03:21 10° NE
ERS-1 Rocket 3.0 21:00:35 31° S 21:03:00 78° WSW 21:08:03 10° NNW
BREEZE-M DEB (TANK) 3.5 21:01:11 10° WNW 21:03:02 27° N 21:03:13 26° N
SL-27 R/B 2.9 21:06:23 46° E 21:06:23 46° E 21:09:30 10° NNE
Meteor 2-21 4.4 21:02:38 26° S 21:06:19 77° E 21:12:28 10° NNE
NOSS 2-1 (D) 3.0 21:08:18 56° ENE 21:08:18 56° ENE 21:11:05 10° NE
Cosmos 2360 Rocket 2.4 21:02:18 10° NNW 21:07:54 62° ENE 21:10:08 36° SE
Cosmos 2026 Rocket 4.5 21:02:34 10° SSW 21:08:50 60° WNW 21:15:03 10° N
GP-B 4.2 21:09:11 10° NNW 21:13:22 41° W 21:16:14 18° SW
Cosmos 1833 4.3 21:14:09 37° SSE 21:16:13 56° ESE 21:21:52 10° NNE
ISS -1.9 21:13:45 10° W 21:15:56 22° WSW 21:15:56 22° WSW
Cosmos 2333 Rocket 3.1 21:13:07 10° NNW 21:18:24 39° NE 21:20:38 28° E
Meteor 1-10 Rocket 4.1 21:15:27 10° N 21:21:02 74° ENE 21:22:51 43° SSE
Cosmos 1371 Rocket 4.0 21:16:11 10° NNW 21:21:34 80° WSW 21:23:22 43° S
Cosmos 2112 Rocket 4.3 21:17:49 15° SSW 21:22:09 68° WNW 21:27:25 10° NNE
Cosmos 1812 2.9 21:18:37 10° NNW 21:22:27 65° W 21:23:03 55° SW
Cosmos 1680 Rocket 4.0 21:17:29 10° SW 21:22:41 58° WNW 21:27:53 10° NNE
Cosmos 1500 Rocket 3.9 21:22:35 44° E 21:22:43 44° E 21:26:57 10° NNE
Cosmos 220 Rocket 4.3 21:20:39 10° NNW 21:24:56 60° WSW 21:25:50 48° SSW
Okean 3 Rocket 4.5 21:24:58 23° SW 21:27:27 47° WNW 21:31:49 10° N
USA 234 4.1 21:22:42 11° E 21:28:34 46° NNE 21:34:45 10° NW
Cosmos 2322 4.4 21:23:18 10° NNW 21:28:47 44° ENE 21:30:49 32° ESE
Cosmos 292 Rocket 3.7 21:28:02 10° NNW 21:32:49 71° ENE 21:33:40 57° SE
Meteor 2-16 Rocket 4.3 21:35:24 39° S 21:37:50 86° E 21:43:58 10° N
Cosmos 2237 Rocket 4.3 21:34:54 10° N 21:38:39 18° NE 21:42:14 10° E
Cosmos 2322 Rocket 2.8 21:34:37 10° NW 21:39:59 46° WSW 21:41:46 34° SSW
Cosmos 1408 Rocket 3.8 21:40:12 46° SW 21:41:15 63° W 21:45:34 10° N
Cosmos 1743 Rocket 3.4 21:42:22 70° ESE 21:42:36 72° E 21:47:02 10° NNE
Cosmos 2285 Rocket 4.4 21:39:30 10° NNW 21:45:39 52° ENE 21:47:43 38° ESE
IRIDIUM 106 4.4 21:42:19 10° N 21:47:31 63° E 21:48:18 55° SE
Cosmos 2315 Rocket 4.1 21:44:11 10° N 21:50:30 68° E 21:52:17 47° SE
Sich 1 3.9 21:51:50 37° ENE 21:51:50 37° ENE 21:55:19 10° NNE
Cosmos 2084 4.4 21:48:52 16° WSW 21:51:55 45° NW 21:55:57 10° NNE
Cosmos 2266 Rocket 3.9 21:53:30 42° SSW 21:55:45 81° W 22:02:01 10° N
Gbstr 26 Del rocket 4.4 21:53:13 10° WNW 21:55:27 25° WSW 21:55:27 25° WSW
Cosmos 1048 Rocket 4.2 21:59:25 50° E 21:59:25 50° E 22:04:14 10° NNE
Cosmos 2219 Rocket 2.3 21:56:14 10° NNW 22:01:50 66° ENE 22:02:58 53° ESE
BREEZE-M DEB (TANK) 4.5 21:50:20 10° SW 22:05:54 58° SSE 22:10:32 10° E
Cosmos 2228 Rocket 3.0 22:01:41 10° N 22:06:05 86° NE 22:06:05 86° NE
SL-16 R/B 3.9 22:03:59 10° NW 22:08:07 21° W 22:09:55 18° SW
COSMOS 2455 2.7 22:09:10 53° SSW 22:10:41 81° ESE 22:16:44 10° NNE
NOSS 3-1 (C) 4.0 22:03:37 10° NW 22:11:12 86° SW 22:14:30 43° SSE
Cosmos 2333 4.1 22:05:47 10° NNW 22:11:23 76° WSW 22:12:13 63° S
Cosmos 1420 Rocket 4.5 22:07:52 10° NNW 22:12:59 48° WSW 22:13:43 45° SW
COSMOS 2428 2.7 22:10:52 10° NNW 22:16:35 71° ENE 22:17:35 58° ESE
Spot 4 3.7 22:21:45 84° S 22:21:54 88° WSW 22:26:46 10° NNW
USA 229 DEB 3.9 22:18:02 10° NW 22:25:24 78° NE 22:28:16 43° SE
USA 229 3.9 22:18:08 10° NW 22:25:30 77° NE 22:28:23 42° SE
Terra 3.9 22:26:49 15° WSW 22:28:02 17° W 22:31:06 10° NW
ATLAS 5 CENTAUR R/B 2.7 22:23:16 10° NNW 22:28:44 60° NE 22:30:39 42° ESE
COSMOS 2487 4.0 22:31:49 33° NNW 22:31:49 33° NNW 22:34:01 10° N
Cosmos 1452 Rocket 3.5 22:27:22 10° NNW 22:32:34 63° WSW 22:32:49 63° WSW
Cosmos 1707 Rocket 3.8 22:28:24 10° N 22:32:18 66° NNE 22:32:18 66° NNE
ALOS 2 2.8 22:33:57 67° NE 22:33:57 67° NE 22:38:00 10° N
USA 267 3.4 22:31:14 10° NE 22:37:46 73° NW 22:44:17 10° WSW
Nadezhda 1 Rocket 4.5 22:36:51 10° N 22:43:05 50° ENE 22:44:26 43° ESE
SL-08 ROCKET BODY 4.3 22:44:13 66° SSE 22:45:02 76° E 22:51:11 10° N
NOSS 3-1 (A) 4.0 22:38:18 10° NW 22:45:54 85° SW 22:48:48 47° SSE
Cosmos 2360 Rocket 3.8 22:47:19 10° NW 22:51:23 21° W 22:51:53 21° WSW
Cosmos 1110 Rocket 4.0 22:53:21 10° NNW 22:58:40 73° WSW 22:58:40 73° WSW
Cosmos 1980 3.9 22:54:49 10° NNW 23:00:27 62° ENE 23:01:19 55° ESE
Cosmos 2333 Rocket 3.1 22:57:32 10° NW 23:02:37 35° WSW 23:02:38 35° WSW
Cosmos 1331 Rocket 4.0 22:58:51 10° NNW 23:03:58 72° W 23:03:58 72° W
USA 234 3.1 23:10:02 58° SSE 23:11:20 75° SW 23:17:55 10° NW
Cosmos 1340 Rocket 4.3 23:13:35 31° NE 23:13:35 31° NE 23:16:02 10° NNE
Nimbus 7 Rocket 4.3 23:07:11 10° NNE 23:13:14 90° SW 23:14:02 69° SSW
NOSS 0 Rocket 3.8 23:09:10 10° NNW 23:15:24 74° WSW 23:16:01 68° SSW
Cosmos 2297 Rocket 2.2 23:17:11 62° ESE 23:17:11 62° ESE 23:22:46 10° NNE
Okean 1-7 4.0 23:15:22 10° N 23:18:54 40° NE 23:18:54 40° NE
Lacrosse 5 2.4 23:21:59 48° E 23:21:59 48° E 23:25:53 10° NE
Cosmos 2237 Rocket 2.0 23:17:51 10° NNW 23:23:35 86° ENE 23:24:02 77° SE
Cosmos 2084 Rocket 4.1 23:20:49 10° NW 23:24:08 53° NNW 23:24:08 53° NNW
Cosmos 2242 Rocket 4.2 23:21:15 10° N 23:25:08 49° ENE 23:25:08 49° ENE
Cosmos 1470 Rocket 4.0 23:29:03 58° NNW 23:29:03 58° NNW 23:32:40 10° N
Cosmos 2227 Rocket 2.3 23:28:53 58° ESE 23:28:53 58° ESE 23:34:24 10° NNE
Cosmos 909 Rocket 4.2 23:31:44 55° SE 23:32:33 59° ESE 23:39:53 10° NE
Cosmos 1633 Rocket 4.2 23:33:06 36° WNW 23:33:06 36° WNW 23:36:49 10° N
Cosmos 1933 Rocket 3.9 23:35:34 66° NNE 23:35:34 66° NNE 23:39:26 10° N
Timation 1 Rocket 4.4 23:41:04 57° SE 23:41:22 58° ESE 23:47:15 10° NE
Meteor 1-11 Rocket 3.8 23:41:19 58° ESE 23:41:39 59° E 23:47:04 10° NNE
Cosmos 2219 Rocket 3.9 23:41:22 10° WNW 23:44:40 19° W 23:44:40 19° W
Cosmos 2263 Rocket 4.2 23:46:36 15° ESE 23:47:18 15° E 23:50:23 10° ENE
Cosmos 1269 Rocket 4.1 23:50:05 61° W 23:50:28 63° WNW 23:55:44 10° NNE
NOSS 2-2 (C) 4.4 23:45:11 10° NW 23:50:38 87° SW 23:52:22 54° SSE
SL-16 R/B 2.8 23:45:21 10° NNW 23:50:54 53° ENE 23:52:42 38° ESE
Cosmos 1992 Rocket 4.1 23:46:18 10° NNW 23:51:31 66° ENE 23:52:06 60° ESE
PSLV R/B 3.9 23:47:34 10° N 23:52:12 69° WNW 23:52:12 69° WNW
Resurs 1-4 Rocket 3.7 23:50:14 10° NE 23:54:24 23° E 23:55:13 22° ESE
